Location: College Park
(38.9810°N, 76.9370°W)
Time: 13:57:54
(UTC-05:00)

ISS - Pass Details

Date: 13 November 2017
Orbit: 402 x 407 km, 51.6° (Epoch: 21 November)

Event Time Altitude Azimuth Distance (km) Brightness Sun altitude
Exits shadow 05:13:13 14° 1° (N) 1,221 -1.5 -18.6°
Maximum altitude 05:14:07 16° 21° (NNE) 1,160 -1.4 -18.5°
Drops below altitude 10° 05:16:12 10° 60° (ENE) 1,453 -0.3 -18.1°
Sets 05:18:53 0° 84° (E) 2,310 1.5 -17.6°
